Weather History for Pittsburgh Allegheny Co., PA

Change the Weather History Date:

Monday, November 28, 2011

  Actual Average Record
Temperature  
Mean Temperature 58 °F -  
Max Temperature 63 °F 54 °F 76 °F (1990)
Min Temperature 53 °F 34 °F 18 °F (1991)
Degree Days  
Heating Degree Days 7    
Growing Degree Days 8 (Base 50)    
Moisture  
Dew Point 51 °F    
Average Humidity 85    
Maximum Humidity 94    
Minimum Humidity 65    
Precipitation  
Precipitation 0.09 in - - ()
Sea Level Pressure  
Sea Level Pressure 29.96 in    
Wind  
Wind Speed 4 mph (ESE)    
Max Wind Speed 10 mph    
Max Gust Speed -    
Visibility 6 miles    
Events Rain    
Averages and records for this station are not official NWS values.
T = Trace of Precipitation, MM = Missing Value Source: NWS Daily Summary

Daily Weather History Graph

Daily Weather History Graph

Search for Another Location

Airport:

Trip Planner

Search our weather history database for the weather conditions in past years. The results will help you decide how hot, cold, wet, or windy it might be!

Date:

Astronomy

Nov. 28, 2011 Rise Set
Actual Time 7:19 AM EST 4:54 PM EST
Civil Twilight 6:49 AM EST 5:25 PM EST
Nautical Twilight 6:16 AM EST 5:58 PM EST
Astronomical Twilight 5:43 AM EST 6:31 PM EST
Moon 10:28 AM EST (11/28) 8:40 PM EST (11/28)
Length of Visible Light 10h 35m
Length of Day
9h 35m
Waxing Crescent, 15% of the Moon is Illuminated
Nov 28
Waxing Crescent
Dec 2
First Quarter
Dec 10
Full
Dec 17
Last Quarter
Dec 24
New

Hourly Weather History & Observations

Time (EST) Temp. Dew Point Humidity Pressure Visibility Wind Dir Wind Speed Gust Speed Precip Events Conditions
12:00 AM 53.6 °F 51.8 °F 94% 29.95 in 1.0 mi SE 4.6 mph - N/A   Overcast
12:07 AM 53.6 °F 51.8 °F 94% 29.95 in 5.0 mi SE 4.6 mph - N/A   Overcast
12:53 AM 53.1 °F 51.1 °F 93% 29.98 in 4.0 mi South 3.5 mph - 0.01 in Rain Light Rain
1:15 AM 53.6 °F 51.8 °F 94% 29.96 in 2.5 mi SE 4.6 mph - 0.01 in Rain Light Rain
1:35 AM 53.6 °F 51.8 °F 94% 29.95 in 1.0 mi Calm Calm - 0.02 in Rain Light Rain
1:43 AM 53.6 °F 51.8 °F 94% 29.96 in 3.0 mi SE 4.6 mph - 0.02 in Rain Light Rain
1:53 AM 53.1 °F 51.1 °F 93% 29.97 in 3.0 mi ESE 3.5 mph - 0.02 in Rain Light Rain
2:00 AM 53.6 °F 51.8 °F 94% 29.95 in 2.0 mi ESE 4.6 mph - 0.01 in Rain Light Rain
2:53 AM 54.0 °F 52.0 °F 93% 29.97 in 2.0 mi ESE 3.5 mph - 0.03 in Rain Light Rain
3:00 AM 53.6 °F 51.8 °F 94% 29.95 in 4.0 mi ESE 4.6 mph - 0.00 in Rain Light Rain
3:53 AM 54.0 °F 52.0 °F 93% 29.97 in 2.5 mi Calm Calm - 0.01 in Rain Light Rain
4:07 AM 53.6 °F 51.8 °F 94% 29.95 in 6.0 mi Calm Calm - 0.00 in Rain Light Rain
4:12 AM 53.6 °F 51.8 °F 94% 29.95 in 1.8 mi Calm Calm - 0.00 in Rain Light Rain
4:28 AM 53.6 °F 51.8 °F 94% 29.95 in 3.0 mi East 3.5 mph - 0.00 in Rain Light Rain
4:39 AM 53.6 °F 51.8 °F 94% 29.95 in 1.8 mi SE 3.5 mph - 0.00 in Rain Light Rain
4:49 AM 53.6 °F 51.8 °F 94% 29.96 in 5.0 mi ESE 3.5 mph - 0.00 in Rain Light Rain
4:53 AM 53.1 °F 51.1 °F 93% 29.97 in 5.0 mi East 4.6 mph - 0.00 in Rain Light Rain
5:53 AM 54.0 °F 51.1 °F 90% 29.99 in 6.0 mi ENE 3.5 mph - 0.01 in   Overcast
6:53 AM 54.0 °F 51.1 °F 90% 30.00 in 8.0 mi NE 3.5 mph - 0.00 in Rain Light Rain
7:53 AM 54.0 °F 51.1 °F 90% 30.02 in 8.0 mi North 4.6 mph - 0.01 in   Overcast
8:38 AM 53.6 °F 51.8 °F 94% 30.01 in 8.0 mi Calm Calm - N/A   Mostly Cloudy
8:53 AM 54.0 °F 52.0 °F 93% 30.03 in 5.0 mi North 3.5 mph - N/A   Mostly Cloudy
8:56 AM 53.6 °F 51.8 °F 94% 30.01 in 5.0 mi North 4.6 mph - N/A   Mostly Cloudy
9:31 AM 53.6 °F 51.8 °F 94% 29.99 in 1.0 mi North 4.6 mph - N/A   Mostly Cloudy
9:53 AM 55.0 °F 52.0 °F 89% 30.02 in 5.0 mi Calm Calm - N/A   Partly Cloudy
10:53 AM 57.0 °F 52.0 °F 83% 30.01 in 10.0 mi ENE 3.5 mph - N/A   Mostly Cloudy
11:53 AM 59.0 °F 53.1 °F 81% 29.99 in 10.0 mi Calm Calm - N/A   Clear
12:53 PM 61.0 °F 54.0 °F 78% 29.97 in 10.0 mi SE 3.5 mph - N/A   Clear
1:53 PM 63.0 °F 53.1 °F 70% 29.96 in 10.0 mi SE 6.9 mph - N/A   Clear
2:53 PM 63.0 °F 51.1 °F 65% 29.95 in 10.0 mi SE 10.4 mph - N/A   Clear
3:53 PM 62.1 °F 50.0 °F 65% 29.93 in 10.0 mi SE 9.2 mph - N/A   Clear
4:53 PM 61.0 °F 50.0 °F 67% 29.95 in 10.0 mi SE 9.2 mph - N/A   Clear
5:53 PM 61.0 °F 50.0 °F 67% 29.94 in 10.0 mi ESE 5.8 mph - N/A   Scattered Clouds
6:53 PM 59.0 °F 50.0 °F 72% 29.92 in 10.0 mi ESE 6.9 mph - 0.00 in   Mostly Cloudy
7:53 PM 57.9 °F 48.9 °F 72% 29.90 in 10.0 mi East 5.8 mph - N/A   Partly Cloudy
8:53 PM 60.1 °F 50.0 °F 69% 29.90 in 10.0 mi SE 9.2 mph - N/A   Overcast
9:53 PM 60.1 °F 48.9 °F 67% 29.88 in 10.0 mi East 5.8 mph - N/A   Clear
10:53 PM 60.1 °F 50.0 °F 69% 29.86 in 10.0 mi East 6.9 mph - N/A   Partly Cloudy
11:53 PM 60.1 °F 50.0 °F 69% 29.84 in 10.0 mi East 6.9 mph - N/A   Mostly Cloudy